sat.trackr.live / text

‹ back to catalog

STARLINK-11680 [DTC]

NORAD 63554 · 2025-075G

PAYLOAD ACTIVE UNKNOWN

§ Identity

Operator
Country
US
Launch date
2025-04-13
Launch site
AFETR
Launch vehicle
Mass (kg)
RCS (m²)

Purposes: comms

External: N2YO · Heavens-Above · Gunter

§ Orbital elements

Epoch: 2026-05-25T03:50:52.317600Z

Period
91.67 min
Inclination
43.0018°
Eccentricity
0.0001979
Mean motion
15.70903028 rev/d
Perigee alt
355.0 km
Apogee alt
357.6 km
Semi-major
6,734.5 km
B*
1.5174e-3
RAAN
53.0256°
Arg perigee
253.0368°
Mean anomaly
107.0283°
Rev number
6,527

§ Raw data

STARLINK-11680 [DTC]1 63554U 25075G   26145.16032775  .00199525  00000+0  15174-2 0  99912 63554  43.0018  53.0256 0001979 253.0368 107.0283 15.70903028 65271

JSON: /api/v1/satellites/63554 · /tle

For live sub-satellite position, see the globe view (requires WebGL).

§ Visibility from observer

Set your observer location to see the next 7 days of passes ≥ 10°. The values pass through the URL so the page stays shareable.

No JS? Fill the form by hand. The geolocation button needs JavaScript.